"Pseudo-MPEC" for X65516

Created 2019 Feb 20 14:18:06 UT using Find_Orb

Click here for an explanation of pseudo-MPECs

 
 Astrometry: 
     X65516   C2019 02 03$Y?Astrometry4.+qBYehl[WMWredacted;AVR_[?#g,2S,62Kt1D29
     X65516   C2019 02 03vNTUclick:B!uTN-O^_4t$k;dGwhereg3(8an46HCPDE%RM2'fKoD29
     X65516   C2019 02 03:OaUnfor.KE/N2v0K7$9M]W%\]WcexplanationI_Ou.CJoyrXJ=D29

Station data:
(D29) Purple Mountain Observatory, XuYi Station  (N32.734366 E118.463900)
   China.  Observers H. B. Zhao, B. Li, G. Zhaori, R. Q. Hong, L. F. Hu.
   Measurers H. B. Zhao, B. Li. H. Lu, G. Zhaori. 1.04-m f/1.8 Schmidt + CCD.

Orbital elements:  X65516
   Perihelion 2019 Feb 10.007996 +/- 40.3 TT =  0:11:30 (JD 2458524.507996)
Epoch 2019 Feb  4.0 TT = JDT 2458518.5   Earth MOID: 0.4260   Ma: 0.0080
M 358.50567343 +/- 33               (J2000 ecliptic)          AutoNEOCP
n   0.24872297 +/- 0.355            Peri.  117.24489 +/- 120
a   2.50414098 +/- 2.38             Node    34.67960 +/- 43
e   0.4362121 +/- 0.257             Incl.    2.89788 +/- 12
P   3.96                   H 21.3   G  0.15   U 12.0  SR
q 1.41180437 +/- 0.528    Q 3.59647758 +/- 41.6
From 3 observations 2019 Feb. 3 (40.7 min); mean residual 0".34
Residuals in arcseconds: 
190203 D29  .12+  .31-    190203 D29  .24-  .63+    190203 D29  .12+  .31-    

Ephemerides (geocentric):
Date (UTC) HH   RA              Dec         delta   r     elong  mag " sig PA
---- -- -- --  -------------   -----------  ------ ------ -----  --- ---- ---
2019 02 20 14  12 00 38.024   +07 56 43.19  .46023 1.4154 153.4 21.3  75d   5
2019 02 20 15  12 00 38.699   +07 56 34.03  .46015 1.4154 153.5 21.3  75d   5
2019 02 20 16  12 00 39.369   +07 56 24.86  .46007 1.4155 153.5 21.3  76d   5
2019 02 20 17  12 00 40.036   +07 56 15.71  .45999 1.4155 153.6 21.3  76d   5
2019 02 20 18  12 00 40.697   +07 56 06.56  .45992 1.4155 153.6 21.3  76d   5
2019 02 20 19  12 00 41.355   +07 55 57.42  .45984 1.4156 153.6 21.3  76d   5
2019 02 20 20  12 00 42.008   +07 55 48.28  .45977 1.4156 153.7 21.3  76d   5
2019 02 20 21  12 00 42.657   +07 55 39.16  .45969 1.4156 153.7 21.3  76d   5
2019 02 20 22  12 00 43.301   +07 55 30.04  .45961 1.4156 153.7 21.3  76d   5
2019 02 20 23  12 00 43.941   +07 55 20.93  .45954 1.4157 153.8 21.3  76d   5
2019 02 21 00  12 00 44.577   +07 55 11.82  .45946 1.4157 153.8 21.3  76d   5
2019 02 21 01  12 00 45.208   +07 55 02.72  .45939 1.4157 153.9 21.3  76d   5
2019 02 21 02  12 00 45.835   +07 54 53.63  .45931 1.4158 153.9 21.3  76d   5
2019 02 21 03  12 00 46.458   +07 54 44.55  .45924 1.4158 153.9 21.3  76d   5
2019 02 21 04  12 00 47.076   +07 54 35.47  .45916 1.4158 154.0 21.3  76d   5
2019 02 21 05  12 00 47.690   +07 54 26.40  .45909 1.4159 154.0 21.3  76d   5
2019 02 21 06  12 00 48.299   +07 54 17.34  .45902 1.4159 154.0 21.3  76d   5
2019 02 21 07  12 00 48.904   +07 54 08.28  .45894 1.4159 154.1 21.3  76d   5
2019 02 21 08  12 00 49.505   +07 53 59.23  .45887 1.4159 154.1 21.3  76d   5
2019 02 21 09  12 00 50.102   +07 53 50.19  .45880 1.4160 154.2 21.3  76d   5
2019 02 21 10  12 00 50.694   +07 53 41.15  .45872 1.4160 154.2 21.3  76d   5
2019 02 21 11  12 00 51.282   +07 53 32.12  .45865 1.4160 154.2 21.3  76d   5
2019 02 21 12  12 00 51.865   +07 53 23.10  .45858 1.4161 154.3 21.3  76d   5
2019 02 21 13  12 00 52.444   +07 53 14.09  .45850 1.4161 154.3 21.3  76d   5
2019 02 21 14  12 00 53.019   +07 53 05.08  .45843 1.4161 154.3 21.3  76d   5
2019 02 21 15  12 00 53.590   +07 52 56.08  .45836 1.4162 154.4 21.3  76d   5
2019 02 21 16  12 00 54.156   +07 52 47.08  .45829 1.4162 154.4 21.3  76d   5
2019 02 21 17  12 00 54.718   +07 52 38.10  .45822 1.4162 154.5 21.3  76d   5
2019 02 21 18  12 00 55.275   +07 52 29.11  .45815 1.4163 154.5 21.3  76d   5
2019 02 21 19  12 00 55.829   +07 52 20.14  .45808 1.4163 154.5 21.3  76d   5
2019 02 21 20  12 00 56.378   +07 52 11.17  .45801 1.4163 154.6 21.3  76d   5
2019 02 21 21  12 00 56.922   +07 52 02.21  .45793 1.4163 154.6 21.3  76d   5
2019 02 21 22  12 00 57.462   +07 51 53.26  .45786 1.4164 154.6 21.3  77d   5
2019 02 21 23  12 00 57.998   +07 51 44.31  .45779 1.4164 154.7 21.3  77d   5
2019 02 22 00  12 00 58.530   +07 51 35.37  .45772 1.4164 154.7 21.3  77d   5
2019 02 22 01  12 00 59.057   +07 51 26.43  .45765 1.4165 154.8 21.3  77d   5
2019 02 22 02  12 00 59.581   +07 51 17.50  .45759 1.4165 154.8 21.3  77d   5
2019 02 22 03  12 01 00.099   +07 51 08.58  .45752 1.4165 154.8 21.3  77d   5
2019 02 22 04  12 01 00.614   +07 50 59.67  .45745 1.4166 154.9 21.3  77d   5
2019 02 22 05  12 01 01.124   +07 50 50.76  .45738 1.4166 154.9 21.3  77d   5
2019 02 22 06  12 01 01.630   +07 50 41.85  .45731 1.4166 154.9 21.3  77d   5
2019 02 22 07  12 01 02.132   +07 50 32.96  .45724 1.4167 155.0 21.3  77d   5
2019 02 22 08  12 01 02.629   +07 50 24.07  .45717 1.4167 155.0 21.3  77d   5
2019 02 22 09  12 01 03.122   +07 50 15.18  .45711 1.4167 155.1 21.3  77d   5
2019 02 22 10  12 01 03.611   +07 50 06.31  .45704 1.4168 155.1 21.3  77d   5
2019 02 22 11  12 01 04.095   +07 49 57.44  .45697 1.4168 155.1 21.3  77d   5
2019 02 22 12  12 01 04.575   +07 49 48.57  .45690 1.4168 155.2 21.3  77d   5
2019 02 22 13  12 01 05.051   +07 49 39.71  .45684 1.4169 155.2 21.3  77d   5